This demonstration page uses our WeatherBlox Daily Observations layout. Learn more.

Left ArrowRight Arrow

Hourly Observations for January 13, 2016

Temp ( °F °C ) Dew Point ( °F °C ) Humidity (%) Winds ( mph kmh ) Pressure ( in mb ) Visibility ( mi km ) Precip ( " mm )
12:53 am 00:53 Mostly Clear 29 -1.7 23 -5 78 78 SW 9 15 30.09 1019 10 16 0.00 0.00
1:53 am 01:53 Mostly Cloudy 27 -2.8 22 -5.6 81 81 SW 7 11 30.07 1018 10 16 0.00 0.00
2:53 am 02:53 Cloudy 28 -2.2 21 -6.1 75 75 WSW 8 13 30.07 1018 10 16 0.00 0.00
3:53 am 03:53 Cloudy 32 0 23 -5 69 69 W 10 17 30.06 1018 10 16 0.00 0.00
4:53 am 04:53 Clear 31 -0.6 22 -5.6 69 69 W 12 19 30.05 1018 10 16 0.00 0.00
5:53 am 05:53 Clear 31 -0.6 22 -5.6 69 69 W 14 22 30.05 1018 10 16 0.00 0.00
6:53 am 06:53 Clear 30 -1.1 21 -6.1 69 69 W 9 15 30.05 1018 10 16 0.00 0.00
7:53 am 07:53 Clear 29 -1.7 21 -6.1 72 72 WSW 8 13 30.05 1018 10 16 0.00 0.00
8:53 am 08:53 Sunny 28 -2.2 21 -6.1 75 75 WSW 8 13 30.05 1018 10 16 0.00 0.00
9:53 am 09:53 Sunny 33 0.6 23 -5 66 66 WSW 7 11 30.04 1017 10 16 0.00 0.00
10:53 am 10:53 Sunny 36 2.2 26 -3.3 67 67 WSW 9 15 30.03 1017 10 16 0.00 0.00
11:53 am 11:53 Sunny 40 4.4 28 -2.2 63 63 WSW 7 11 30.00 1016 10 16 0.00 0.00
12:53 pm 12:53 Sunny 43 6.1 30 -1.1 60 60 SW 5 7 29.95 1014 10 16 0.00 0.00
1:53 pm 13:53 Sunny 45 7.2 30 -1.1 56 56 SW 8 13 29.91 1013 10 16 0.00 0.00
2:53 pm 14:53 Sunny 46 7.8 31 -0.6 56 56 SW 9 15 29.88 1012 10 16 0.00 0.00
3:53 pm 15:53 Sunny 45 7.2 30 -1.1 56 56 SW 6 9 29.86 1011 10 16 0.00 0.00
4:53 pm 16:53 Sunny 45 7.2 30 -1.1 56 56 SSW 8 13 29.85 1011 10 16 0.00 0.00
5:53 pm 17:53 Clear 43 6.1 29 -1.7 58 58 S 7 11 29.83 1010 10 16 0.00 0.00
6:53 pm 18:53 Clear 40 4.4 28 -2.2 63 63 S 8 13 29.81 1010 10 16 0.00 0.00
7:53 pm 19:53 Clear 42 5.6 27 -2.8 55 55 SSW 10 17 29.79 1009 10 16 0.00 0.00
8:53 pm 20:53 Clear 40 4.4 25 -3.9 55 55 SSW 10 17 29.78 1008 10 16 0.00 0.00
9:53 pm 21:53 Clear 41 5 25 -3.9 53 53 SSW 9 15 29.75 1007 10 16 0.00 0.00
10:53 pm 22:53 Clear 40 4.4 25 -3.9 55 55 SSW 12 19 29.72 1006 10 16 0.00 0.00
11:53 pm 23:53 Clear 39 3.9 26 -3.3 60 60 SW 8 13 29.70 1006 10 16 0.00 0.00

Powered by AerisWeather